Washington, DC - DCA

Welcome to the Capitol

Ronald Reagan Washington National Airport serves the United States Capitol as American Airlines' domestic only hub connecting the east coast. AAG operates over 30% of the total passenger share out of this airport which features some of the most difficult approaches due to the surrounding airspace and close proximity to the capitol buildings.

DCA Based Pilots: 11   Miles to DCA: 90584
Flights from DCA: 207   Total Hours: 561.89
Routes using DCA: 1215   From DCA: 295.15
Total Miles: 187378   Hours To DCA: 266.74
Miles from DCA: 96794   DCA Charts: Click Here
VATSIM METAR: KDCA 042252Z 34012KT 10SM -RA BKN021 OVC045 11/08 A2998 RMK AO2 RAB2159 SLP150 P0001 T01060083
 
         
View More: Click Here
   

 

Earn Your Wings

Interested in joining our DCA hub? Hover for more!

Your journey starts here. Your journey starts now. A whole new experience is at your fingertips.

Like what you see and ready to join the team?

A rewarding and memorable virtual airline experience awaits!